Tracking 30918 objects as of 2-Jul-2025
HD Live streaming from Space Station
objects crossing your sky now

STARLINK-5865

Track STARLINK-5865 now!
10-day predictions
STARLINK-5865 is classified as:


NORAD ID: 57053
Int'l Code: 2023-088F
Perigee: 565.5 km
Apogee: 566.9 km
Inclination: 43.0 °
Period: 95.8 minutes
Semi major axis: 6937 km
RCS: Unknown
Launch date: June 22, 2023
Source: United States (US)
Launch site: AIR FORCE WESTERN TEST RANGE (AFWTR)
Your satellite tracking list
Your tracking list is empty




NASA's NSSDC Master Catalog

Two Line Element Set (TLE):
1 57053U 23088F   25182.63322205  .00000155  00000-0  26522-4 0  9994
2 57053  43.0048  31.7065 0001049 260.4154  99.6570 15.02536509111701
Source of the keplerian elements: AFSPC